Weather History for Christmas Island, IS

Change the Weather History Date:

Wednesday, December 18, 2013

  Actual Average Record
Temperature  
Mean Temperature 76 °F -  
Max Temperature 80 °F 79 °F 82 °F (1998)
Min Temperature 72 °F 71 °F 68 °F (2001)
Cooling Degree Days 11    
Growing Degree Days 26 (Base 50)    
Moisture  
Dew Point 74 °F    
Average Humidity 95    
Maximum Humidity 100    
Minimum Humidity 83    
Precipitation  
Precipitation 1.14 in - - ()
Sea Level Pressure  
Sea Level Pressure 29.83 in    
Wind  
Wind Speed 4 mph ()    
Max Wind Speed 12 mph    
Max Gust Speed -    
Visibility 5.3 miles    
Events Rain    
Averages and records for this station are not official NWS values.
T = Trace of Precipitation, MM = Missing Value Source: Averaged Metar Reports

Daily Weather History Graph

Daily Weather History Graph

Search for Another Location

Airport:

Trip Planner

Search our weather history database for the weather conditions in past years. The results will help you decide how hot, cold, wet, or windy it might be!

Date:

Astronomy

Dec. 18, 2013 Rise Set
Actual Time 5:31 AM CXT 6:15 PM CXT
Civil Twilight 5:08 AM CXT 6:39 PM CXT
Nautical Twilight 4:41 AM CXT 7:06 PM CXT
Astronomical Twilight 4:13 AM CXT 7:33 PM CXT
Moon 6:59 PM CXT (12/18) 6:05 AM CXT (12/18)
Length of Visible Light 13h 30m
Length of Day
12h 44m
Full, 99% of the Moon is Illuminated
Dec 18
Full
Dec 25
Last Quarter
Jan 1
New
Jan 8
First Quarter
Jan 16
Full

Hourly Weather History & Observations

Time (CXT) Temp. Heat Index Dew Point Humidity Pressure Visibility Wind Dir Wind Speed Gust Speed Precip Events Conditions
12:00 AM 73 °F - 71 °F 92% 29.80 in - Calm Calm - -   Overcast
12:00 AM 73.4 °F - 71.6 °F 94% 29.83 in 6.2 mi Calm Calm - N/A   Overcast
1:00 AM 73 °F - 72 °F 95% 29.78 in - Calm Calm - -  
1:00 AM 73.4 °F - 71.6 °F 94% 29.83 in 6.2 mi Calm Calm - N/A   Scattered Clouds
2:00 AM 73.4 °F - 73.4 °F 100% 29.80 in - Calm Calm - N/A   Mostly Cloudy
3:00 AM 74 °F - 74 °F 98% 29.75 in - Calm Calm - -  
3:00 AM 75.2 °F - 73.4 °F 94% 29.80 in - Calm Calm - N/A   Scattered Clouds
4:00 AM 73 °F - 73 °F 99% 29.75 in - West 4.6 mph - -  
4:00 AM 73.4 °F - 73.4 °F 100% 29.80 in - West 4.6 mph - N/A   Unknown
5:00 AM 73.4 °F - 71.6 °F 94% 29.80 in 6.2 mi WNW 4.6 mph - N/A   Mostly Cloudy
6:00 AM 73 °F - 72 °F 95% 29.79 in - Calm Calm - -  
6:00 AM 73.4 °F - 71.6 °F 94% 29.83 in - Calm Calm - N/A   Scattered Clouds
7:00 AM 75 °F - 74 °F 95% 29.79 in - Calm Calm - -  
7:00 AM 75.2 °F - 73.4 °F 94% 29.83 in 6.2 mi Calm Calm - N/A   Scattered Clouds
7:50 AM 78.8 °F - 75.2 °F 89% 29.83 in 6.2 mi SE 6.9 mph - N/A   Overcast
8:00 AM 78.8 °F - 77.0 °F 94% 29.83 in 6.2 mi SE 9.2 mph - N/A   Overcast
9:00 AM 79 °F - 75 °F 83% 29.81 in - SSE 6.9 mph - -  
9:00 AM 78.8 °F - 75.2 °F 89% 29.83 in 6.2 mi SSE 6.9 mph - N/A   Mostly Cloudy
10:00 AM 80 °F - 77 °F 86% 29.83 in - SE 9.2 mph - -  
10:00 AM 80.6 °F 87.1 °F 77.0 °F 89% 29.86 in 6.2 mi SE 9.2 mph - N/A   Mostly Cloudy
10:52 AM 78.8 °F - 77.0 °F 94% 29.86 in 6.2 mi SSE 8.1 mph - N/A   Light Drizzle
11:00 AM 78.8 °F - 77.0 °F 94% 29.86 in 5.0 mi SSE 8.1 mph - N/A Rain Rain Showers
12:00 PM 76 °F - 75 °F 97% 29.81 in - South 5.8 mph - -   Overcast
12:00 PM 77.0 °F - 75.2 °F 94% 29.86 in - South 5.8 mph - N/A   Overcast
12:08 PM 77.0 °F - 75.2 °F 94% 29.86 in - SSW 4.6 mph - N/A   Overcast
12:28 PM 73.4 °F - 73.4 °F 100% 29.86 in - ENE 8.1 mph - N/A Rain Rain
12:29 PM 73.4 °F - 73.4 °F 100% 29.86 in - ENE 8.1 mph - N/A Rain Rain
12:32 PM 75.2 °F - 73.4 °F 94% 29.86 in 0.2 mi ENE 6.9 mph - N/A Rain Rain
12:33 PM 73.4 °F - 73.4 °F 100% 29.86 in 0.2 mi ENE 8.1 mph - N/A Rain Rain
1:00 PM 74 °F - 73 °F 97% 29.80 in - ESE 6.9 mph - -  
1:00 PM 73.4 °F - 73.4 °F 100% 29.83 in - ESE 6.9 mph - N/A   Overcast
2:00 PM 73.4 °F - 73.4 °F 100% 29.80 in - SE 4.6 mph - N/A   Overcast
2:13 PM 73.4 °F - 73.4 °F 100% 29.80 in - SE 5.8 mph - N/A   Overcast
2:25 PM 73.4 °F - 73.4 °F 100% 29.80 in - SSE 5.8 mph - N/A   Overcast
2:30 PM 73.4 °F - 73.4 °F 100% 29.80 in - SSE 8.1 mph - N/A   Overcast
3:00 PM 74 °F - 73 °F 95% 29.75 in - South 5.8 mph - -   Overcast
3:00 PM 73.4 °F - 73.4 °F 100% 29.80 in - South 5.8 mph - N/A   Overcast
3:16 PM 73.4 °F - 73.4 °F 100% 29.77 in - South 4.6 mph - N/A   Overcast
4:56 PM 75.2 °F - 73.4 °F 94% 29.80 in 6.2 mi SE 5.8 mph - N/A Rain Light Rain
5:00 PM 75.2 °F - 73.4 °F 94% 29.80 in 6.2 mi SE 6.9 mph - N/A Rain Light Rain
5:30 PM 75.2 °F - 73.4 °F 94% 29.80 in - SE 5.8 mph - N/A   Overcast
5:41 PM 75.2 °F - 75.2 °F 100% 29.80 in - SE 6.9 mph - N/A   Overcast
6:00 PM 75 °F - 74 °F 97% 29.79 in - SE 8.1 mph - -   Overcast
6:00 PM 75.2 °F - 75.2 °F 100% 29.83 in - SE 8.1 mph - N/A   Overcast
6:25 PM 75.2 °F - 73.4 °F 94% 29.83 in - SE 8.1 mph - N/A   Scattered Clouds
7:00 PM 74 °F - 73 °F 97% 29.81 in - SE 8.1 mph - -  
7:00 PM 75.2 °F - 73.4 °F 94% 29.86 in - SE 8.1 mph - N/A   Mostly Cloudy
7:03 PM 75.2 °F - 73.4 °F 94% 29.86 in - SE 9.2 mph - N/A   Mostly Cloudy
8:00 PM 75.2 °F - 73.4 °F 94% 29.86 in - SE 10.4 mph - N/A   Overcast
9:00 PM 75 °F - 74 °F 95% 29.85 in - SE 11.5 mph - -   Overcast
9:00 PM 75.2 °F - 73.4 °F 94% 29.89 in - SE 11.5 mph - N/A   Mostly Cloudy
9:25 PM 75.2 °F - 73.4 °F 94% 29.89 in - SSE 6.9 mph - N/A   Mostly Cloudy
9:39 PM 75.2 °F - 73.4 °F 94% 29.89 in - SE 9.2 mph - N/A   Mostly Cloudy
10:00 PM 74 °F - 73 °F 97% 29.86 in - SE 6.9 mph - -  
10:00 PM 75.2 °F - 73.4 °F 94% 29.89 in - SE 6.9 mph - N/A   Overcast
10:15 PM 75.2 °F - 71.6 °F 89% 29.89 in - SE 8.1 mph - N/A   Scattered Clouds
11:00 PM 73.4 °F - 71.6 °F 94% 29.89 in - SE 4.6 mph - N/A   Unknown